Probability
55 55 61 58 68 74 90 90 90 90 94 94 94 94 90 90 90 84 81 77 74 74 74 71 74 74 74 77 71 84 61 65 68 58 61 58 55 55 55 68 58 61 68
48 61 61 61 71 84 87 87 90 90 90 90 94 97 97 97 97 87 90 81 74 71 65 74 74 74 74 74 77 74 65 71 71 71 65 65 55 61 42 74 71 61 55
45 58 58 65 68 77 87 84 90 90 90 90 94 94 94 97 94 87 87 84 81 74 68 71 77 77 74 71 77 77 71 68 71 68 61 61 58 68 68 74 77 61 68
48 58 58 58 68 77 81 90 94 97 97 97 97 90 94 87 87 90 87 87 84 84 81 81 81 84 77 74 71 71 77 74 74 71 71 74 71 61 58 65 55 52 61
45 58 61 68 68 68 71 84 94 97 97 97 94 94 94 94 90 87 94 90 84 84 81 81 81 84 81 81 71 77 77 74 71 71 71 71 71 68 55 45 55 58 52
42 58 65 77 74 74 74 81 90 90 94 90 94 94 94 90 90 94 94 87 84 84 81 81 81 84 81 81 77 77 81 77 74 74 74 77 71 68 65 42 58 52 45
42 55 61 71 77 77 77 81 87 90 90 90 90 90 90 87 94 94 94 84 84 84 81 77 81 81 81 77 81 74 81 81 77 77 74 74 65 65 68 58 52 58 55
39 48 65 74 74 77 81 84 87 90 90 84 87 90 87 90 87 90 87 87 84 77 74 77 77 77 81 74 81 81 74 77 77 71 77 77 71 71 61 61 55 45 48
32 42 58 81 77 77 81 81 84 87 84 81 87 87 87 87 87 87 87 87 81 74 74 71 71 68 77 77 77 81 74 81 74 77 77 81 65 68 65 65 55 52 45
42 48 52 65 77 74 77 77 81 84 87 81 84 81 87 84 84 84 84 81 77 81 77 74 71 71 71 74 74 74 77 81 81 84 77 77 71 71 71 68 65 61 55
52 52 52 65 68 74 74 74 81 81 81 84 84 84 81 87 84 87 84 77 77 81 77 71 74 71 68 71 71 74 74 71 71 74 68 71 71 68 68 74 65 61 68
45 45 55 61 58 61 71 77 81 81 81 84 84 84 84 81 81 84 77 81 77 74 77 77 71 71 68 68 68 68 68 68 68 65 65 68 58 71 74 74 71 71 68
42 48 58 55 61 61 65 65 65 68 71 81 77 77 77 77 77 77 77 77 74 77 74 74 71 68 68 68 68 68 61 61 61 61 61 61 65 61 68 65 61 65 65
39 45 61 65 65 65 65 61 58 61 65 65 68 74 77 74 74 71 71 71 74 74 68 71 71 68 61 58 58 58 58 61 61 61 61 55 55 58 61 58 58 58 61
39 55 65 61 65 65 61 58 61 61 65 65 65 68 65 68 68 68 68 65 68 55 68 68 61 58 58 55 52 52 55 61 58 55 52 52 45 35 35 39 42 48 45
42 48 61 65 61 61 58 58 61 65 65 65 68 65 61 65 68 55 58 61 65 61 68 65 65 61 42 35 32 39 42 48 55 48 52 52 35 29 19 19 16 16 35
45 52 58 61 61 55 55 61 65 61 65 58 58 58 58 58 55 52 58 61 61 61 61 61 65 58 52 35 19 19 42 42 42 45 45 42 39 29 29 26 6 3 3
48 48 52 52 55 55 48 55 58 58 55 58 55 55 55 52 58 58 61 61 58 58 55 61 55 55 45 23 10 10 19 42 42 39 39 42 32 26 26 26 29 32 32
42 39 42 42 45 48 48 45 48 48 55 52 52 48 45 45 52 52 55 65 58 55 55 55 52 48 39 23 10 3 26 39 32 32 23 23 29 16 13 13 16 29 26
39 39 29 29 39 48 45 48 45 48 45 48 52 48 48 48 45 52 52 52 58 52 55 48 45 42 42 23 3 3 26 29 26 29 23 16 16 16 10 13 16 16 23
29 29 32 39 48 55 58 45 42 42 45 42 48 45 45 55 52 55 61 55 45 42 48 48 48 45 42 19 3 3 26 23 23 19 19 16 10 0 0 6 16 16 10
26 26 42 35 35 45 45 52 48 45 45 39 39 45 48 32 32 45 48 52 48 48 45 45 39 39 35 23 10 0 3 10 16 23 16 13 3 0 0 0 3 3 0
26 29 42 39 39 39 48 55 52 45 42 42 45 45 42 45 45 42 39 45 48 35 35 32 32 32 35 26 6 0 0 0 3 13 10 6 0 0 0 0 0 0 0
29 29 29 35 39 42 45 45 48 48 48 48 42 35 32 29 39 42 32 32 32 32 32 29 26 23 32 19 16 10 0 0 0 0 3 0 0 0 0 0 0 0 3
29 32 32 42 39 35 39 32 39 42 48 42 39 35 26 19 32 23 29 19 19 19 19 26 29 23 19 10 10 13 6 6 3 3 6 10 3 6 6 6 3 3 3
23 23 23 29 35 32 32 39 42 45 48 42 39 23 19 26 19 16 13 6 3 3 0 3 6 3 3 6 0 0 0 0 0 0 3 3 3 6 6 10 10 6 6
Height
5903 5903 5902 5902 5902 5901 5901 5901 5900 5900 5901 5901 5902 5902 5902 5903 5903 5904 5904 5904 5904 5905 5905 5905 5905 5904 5904 5904 5903 5903 5902 5902 5902 5901 5901 5901 5901 5901 5902 5901 5901 5901 5901
5903 5903 5902 5902 5902 5902 5901 5901 5901 5901 5901 5902 5902 5903 5903 5903 5904 5904 5904 5904 5905 5905 5905 5905 5904 5904 5904 5903 5903 5902 5902 5902 5901 5901 5901 5901 5901 5900 5900 5900 5899 5899 5899
5901 5902 5902 5902 5902 5902 5902 5902 5902 5902 5902 5902 5902 5903 5903 5903 5904 5904 5905 5905 5904 5904 5904 5904 5904 5904 5903 5903 5902 5901 5901 5900 5900 5900 5900 5900 5900 5900 5899 5899 5898 5898 5897
5900 5900 5901 5901 5902 5902 5902 5902 5902 5902 5902 5903 5903 5903 5903 5903 5904 5904 5904 5904 5904 5904 5904 5904 5903 5903 5903 5902 5901 5900 5900 5899 5899 5899 5899 5899 5898 5898 5898 5897 5897 5896 5895
5898 5899 5900 5900 5900 5901 5901 5901 5901 5901 5902 5902 5902 5902 5903 5903 5903 5903 5903 5903 5903 5903 5903 5903 5902 5902 5901 5901 5900 5899 5899 5898 5898 5897 5897 5897 5896 5896 5896 5895 5895 5894 5893
5896 5897 5897 5898 5898 5899 5899 5900 5900 5900 5901 5901 5901 5901 5902 5902 5902 5902 5902 5902 5902 5902 5902 5901 5901 5900 5899 5899 5898 5897 5897 5896 5896 5895 5895 5894 5894 5894 5893 5893 5892 5892 5891
5894 5895 5895 5895 5896 5896 5897 5898 5898 5898 5899 5899 5899 5900 5900 5900 5900 5900 5900 5900 5900 5900 5900 5899 5899 5898 5897 5896 5896 5895 5895 5894 5893 5893 5892 5892 5891 5891 5890 5890 5889 5889 5888
5893 5893 5893 5893 5893 5894 5895 5895 5896 5896 5896 5897 5897 5897 5897 5898 5898 5898 5898 5898 5898 5897 5897 5896 5896 5895 5894 5893 5893 5892 5892 5891 5890 5890 5889 5889 5888 5888 5887 5887 5886 5885 5885
5890 5890 5890 5890 5890 5891 5891 5892 5893 5893 5894 5894 5894 5894 5895 5895 5895 5895 5895 5895 5894 5894 5894 5893 5892 5891 5891 5890 5889 5889 5888 5888 5887 5886 5886 5885 5885 5884 5884 5883 5882 5881 5880
5886 5887 5887 5887 5887 5887 5887 5888 5889 5889 5890 5890 5891 5891 5891 5891 5891 5891 5891 5891 5891 5890 5890 5889 5888 5888 5887 5887 5886 5885 5885 5884 5883 5882 5882 5881 5880 5880 5880 5879 5878 5877 5876
5882 5882 5882 5882 5882 5882 5882 5883 5884 5885 5885 5886 5886 5886 5887 5887 5887 5887 5887 5887 5886 5886 5885 5885 5884 5884 5883 5882 5882 5881 5880 5880 5879 5878 5877 5877 5876 5875 5875 5874 5874 5873 5872
5876 5876 5877 5876 5876 5876 5877 5878 5879 5879 5880 5880 5881 5881 5882 5882 5882 5882 5882 5881 5881 5881 5880 5880 5879 5879 5878 5878 5877 5876 5875 5875 5874 5873 5872 5872 5871 5870 5870 5869 5869 5868 5867
5870 5871 5871 5871 5871 5871 5871 5871 5872 5873 5874 5874 5875 5875 5876 5876 5876 5876 5876 5875 5875 5875 5874 5874 5874 5873 5873 5872 5871 5871 5870 5869 5868 5867 5866 5865 5865 5864 5864 5863 5863 5862 5861
5863 5864 5864 5865 5865 5865 5865 5865 5865 5866 5867 5868 5868 5869 5869 5869 5869 5869 5869 5869 5868 5868 5868 5868 5867 5867 5866 5866 5865 5864 5864 5863 5862 5861 5860 5859 5859 5858 5858 5857 5856 5855 5854
5857 5857 5858 5858 5858 5858 5858 5859 5858 5859 5859 5860 5861 5862 5862 5862 5862 5862 5862 5861 5861 5861 5861 5861 5860 5860 5859 5859 5859 5858 5857 5856 5855 5854 5854 5853 5852 5851 5850 5850 5849 5848 5847
5849 5850 5850 5851 5851 5850 5849 5850 5850 5850 5851 5852 5853 5853 5854 5854 5854 5853 5853 5853 5853 5853 5853 5853 5853 5853 5852 5852 5851 5851 5850 5849 5848 5847 5846 5846 5845 5843 5842 5842 5841 5840 5839
5840 5841 5842 5842 5842 5842 5842 5842 5841 5842 5843 5844 5844 5845 5845 5845 5845 5845 5845 5844 5844 5845 5844 5844 5845 5845 5844 5844 5843 5842 5842 5841 5841 5839 5838 5838 5837 5835 5834 5834 5833 5832 5831
5831 5831 5832 5832 5833 5833 5833 5833 5833 5833 5834 5835 5835 5836 5836 5836 5836 5836 5836 5836 5836 5837 5836 5836 5836 5836 5836 5835 5834 5834 5833 5832 5832 5830 5829 5828 5828 5826 5825 5824 5823 5823 5822
5821 5821 5821 5822 5821 5822 5823 5824 5823 5825 5826 5826 5826 5826 5826 5826 5826 5826 5827 5827 5827 5827 5827 5828 5827 5827 5827 5826 5825 5825 5824 5823 5822 5821 5820 5819 5818 5817 5815 5814 5814 5813 5812
5811 5811 5811 5811 5810 5812 5814 5815 5815 5816 5817 5817 5817 5816 5816 5816 5816 5817 5818 5818 5818 5818 5818 5819 5819 5818 5818 5817 5816 5815 5815 5814 5813 5812 5810 5809 5808 5807 5805 5804 5803 5803 5802
5800 5800 5800 5800 5801 5802 5804 5805 5805 5806 5806 5806 5806 5806 5806 5806 5806 5806 5807 5808 5808 5808 5809 5809 5809 5808 5808 5808 5807 5806 5805 5804 5803 5802 5801 5800 5798 5797 5795 5794 5793 5792 5791
5788 5789 5791 5791 5792 5793 5794 5795 5795 5795 5796 5796 5796 5796 5796 5796 5796 5796 5797 5797 5797 5797 5798 5798 5799 5798 5798 5798 5797 5796 5795 5794 5793 5792 5791 5789 5788 5786 5784 5783 5782 5781 5779
5777 5779 5780 5781 5782 5783 5784 5784 5784 5784 5785 5785 5786 5786 5786 5786 5786 5786 5787 5787 5787 5787 5787 5787 5788 5788 5788 5787 5787 5786 5785 5783 5782 5781 5780 5779 5777 5775 5774 5772 5770 5769 5767
5768 5769 5770 5771 5772 5772 5773 5773 5773 5774 5774 5775 5775 5775 5776 5776 5776 5776 5775 5775 5776 5776 5777 5777 5777 5777 5777 5776 5775 5775 5774 5772 5771 5770 5769 5768 5766 5765 5763 5761 5759 5757 5756
5759 5759 5759 5760 5761 5762 5762 5763 5763 5763 5764 5764 5765 5765 5765 5765 5765 5764 5765 5765 5765 5765 5766 5766 5766 5766 5766 5766 5765 5764 5763 5761 5760 5759 5758 5757 5756 5754 5753 5751 5749 5747 5746
5748 5749 5749 5750 5751 5752 5752 5752 5752 5753 5753 5754 5754 5754 5755 5754 5754 5754 5755 5755 5755 5755 5755 5755 5755 5755 5754 5754 5753 5752 5751 5750 5749 5747 5747 5746 5744 5743 5742 5741 5739 5738 5736
Wind_Speed
7 7 7 7 6 6 5 5 4 3 2 2 2 1 1 1 1 1 2 2 2 3 3 3 3 4 4 5 5 5 4 5 6 6 5 5 5 6 6 7 7 8 8
7 7 7 6 6 5 4 4 4 3 3 2 1 1 1 1 1 1 1 2 3 3 4 5 5 5 5 5 5 5 5 5 5 5 5 6 6 6 6 7 8 8 8
8 8 7 6 6 5 4 4 4 4 3 2 2 2 2 2 2 2 3 3 3 4 5 6 6 6 7 7 7 6 6 7 7 6 6 6 7 7 7 7 8 8 9
11 9 8 7 7 7 6 5 4 5 4 4 3 4 4 3 3 3 4 5 5 6 6 7 7 7 7 8 8 8 8 8 8 7 7 8 8 8 8 8 8 9 9
13 11 9 8 8 8 7 6 6 6 6 5 5 5 5 5 5 6 6 7 7 7 7 8 8 8 9 9 9 9 9 9 9 9 9 9 9 10 10 10 10 11 11
12 12 11 10 8 9 9 8 8 7 7 7 7 7 7 7 7 7 8 8 9 9 9 10 10 10 10 10 10 10 10 10 11 11 10 11 11 11 12 11 11 11 12
13 13 13 12 12 11 10 10 10 10 10 9 10 10 9 9 9 9 9 9 10 11 11 12 12 12 12 11 11 11 11 11 12 12 13 13 13 13 13 13 12 12 13
14 15 15 15 14 13 13 12 12 12 12 12 12 12 12 11 11 11 11 11 12 12 13 13 14 13 13 12 12 13 13 13 13 13 14 14 14 13 13 14 14 14 14
15 15 15 16 16 16 15 15 15 14 14 14 14 13 14 13 13 13 13 14 14 14 14 15 15 15 15 14 14 14 14 14 14 14 14 15 15 15 15 15 15 16 16
17 17 17 17 19 19 18 17 18 17 16 16 16 16 15 16 16 16 16 16 16 16 16 17 16 16 16 16 16 16 15 16 16 16 16 16 16 16 16 16 16 17 16
18 18 19 19 20 21 21 20 19 19 19 19 18 18 18 18 19 19 19 19 18 18 18 19 18 17 17 18 18 17 17 17 17 18 18 18 18 18 18 18 19 19 19
22 21 21 21 21 22 22 22 22 21 21 21 21 21 21 21 21 21 21 21 21 21 21 21 20 19 20 20 20 20 19 19 19 20 20 20 21 21 21 21 21 22 21
24 24 23 23 23 23 24 23 23 23 23 23 24 24 23 24 25 24 24 24 24 23 23 23 22 23 23 22 22 22 22 23 23 23 23 23 23 23 23 23 23 24 24
26 25 26 25 25 25 25 26 25 25 25 25 25 26 26 27 27 27 27 27 26 26 25 25 25 25 24 24 24 24 25 26 26 26 26 25 25 25 25 25 26 26 26
27 27 27 27 27 27 27 28 28 27 28 28 27 28 28 28 29 30 30 30 29 28 27 27 26 26 26 27 27 27 27 27 27 27 27 27 27 27 28 28 28 28 28
30 30 30 29 29 29 29 29 31 30 30 30 30 30 30 30 31 31 31 31 31 29 28 28 28 28 28 29 29 30 29 29 29 29 29 29 29 30 29 29 28 29 29
33 33 33 32 32 32 32 31 31 31 31 31 32 32 32 33 32 33 33 32 31 30 28 28 29 30 31 31 31 31 31 31 31 31 31 31 31 32 32 31 31 32 32
35 35 35 35 34 33 33 33 32 32 32 32 33 34 34 35 34 34 33 33 33 32 31 30 30 31 32 32 32 32 33 32 32 32 32 32 33 33 34 34 34 33 33
36 36 36 36 35 35 35 35 34 33 33 34 34 35 36 36 36 35 35 35 34 34 33 32 32 32 33 33 33 34 33 34 34 34 34 34 35 35 35 35 34 34 34
37 36 36 36 36 36 36 36 35 35 36 36 36 36 37 37 37 37 37 37 37 36 34 33 33 33 32 33 34 35 35 35 35 36 35 36 36 36 36 36 35 35 35
38 38 37 36 36 36 36 36 36 37 37 37 37 36 36 37 37 37 38 38 37 36 35 35 35 34 34 34 35 35 35 36 37 37 35 36 37 37 37 38 38 37 37
38 37 37 37 37 37 36 36 37 37 37 37 36 36 37 36 36 37 37 37 37 36 36 36 36 36 35 36 36 35 36 37 37 37 37 37 37 38 38 38 39 39 39
37 36 37 37 37 38 38 37 37 37 38 37 38 38 38 37 37 38 37 37 37 37 37 36 36 36 37 37 37 37 37 37 38 38 38 38 38 38 37 38 38 39 39
39 38 38 38 38 38 38 38 38 38 38 38 38 38 38 38 38 39 39 38 38 38 37 37 38 38 38 37 36 36 37 38 38 38 37 38 37 38 38 38 38 37 37
41 39 38 38 37 37 38 39 39 38 38 38 38 38 38 38 38 37 37 38 38 38 38 38 38 38 37 37 37 37 38 38 38 38 38 38 38 38 37 36 36 36 35
42 41 40 39 38 38 39 39 38 37 37 37 37 37 37 37 38 37 37 37 37 37 37 37 37 38 38 38 38 38 39 39 38 38 38 38 38 38 37 36 36 35 35
Wind_Direction
330 337 343 350 354 360 0 6 9 18 25 29 35 37 62 67 43 38 33 20 6 358 1 338 335 345 344 335 324 317 315 316 319 321 318 315 305 301 298 298 297 294 291
313 318 326 332 340 346 349 357 5 5 1 353 345 336 333 338 337 345 346 349 345 341 339 339 332 333 337 337 329 317 315 314 316 318 320 320 316 310 305 302 302 300 296
301 302 309 313 317 325 332 329 335 342 339 332 318 311 313 306 310 314 323 331 335 333 331 331 328 326 330 329 329 326 317 315 313 311 314 314 317 314 306 308 308 307 303
293 296 298 302 304 307 308 307 304 309 312 309 303 300 302 299 299 300 307 309 314 321 324 328 327 324 322 325 326 327 323 321 318 309 307 308 308 306 306 307 310 311 310
287 288 286 288 294 299 299 300 298 294 294 296 296 292 294 296 296 297 301 301 303 307 313 318 319 319 316 316 316 316 317 318 316 311 307 305 305 304 303 302 303 305 306
276 277 280 280 282 289 290 292 293 291 286 286 289 290 288 290 291 291 297 298 299 302 305 308 310 310 308 307 308 309 309 306 309 306 306 306 302 302 301 299 299 301 304
274 272 274 279 279 279 283 286 285 284 282 283 285 283 280 282 285 289 292 295 296 298 299 300 302 303 303 301 300 302 303 302 301 300 300 301 300 302 300 298 297 297 298
270 269 272 276 279 279 278 280 281 279 278 280 282 280 279 282 284 287 290 292 295 296 296 295 297 299 299 298 296 297 297 297 296 295 296 297 297 299 302 300 299 298 297
265 264 268 274 277 276 276 277 278 277 277 275 277 279 280 282 284 285 288 290 291 291 293 293 293 293 293 294 296 298 296 294 295 295 295 294 293 293 296 298 300 300 299
263 264 263 268 272 274 274 275 276 275 276 275 274 277 279 280 282 283 286 288 289 289 290 292 292 290 290 292 293 295 296 293 292 292 293 291 291 290 292 295 298 299 300
265 265 268 268 269 270 270 271 272 273 273 274 274 276 278 279 280 281 282 285 285 285 287 289 291 290 289 290 290 292 295 293 291 292 292 292 290 288 288 291 294 295 296
262 263 265 268 266 267 269 269 268 270 271 271 272 273 277 280 281 281 282 283 282 282 283 285 286 286 286 290 291 291 292 292 291 288 289 288 287 287 286 287 289 291 292
263 265 265 266 266 266 268 268 268 268 269 270 270 272 275 277 279 279 280 280 280 279 280 282 282 284 286 287 289 289 288 289 290 288 287 286 284 285 285 285 286 287 288
265 265 264 264 264 265 266 267 268 267 268 269 269 271 274 275 275 277 279 279 280 278 277 279 280 281 283 287 289 289 288 288 289 287 286 286 283 283 284 284 285 286 288
264 266 266 265 264 264 267 267 268 269 268 269 270 272 273 274 274 276 278 277 277 276 275 277 279 281 283 285 285 285 286 286 288 288 287 285 284 283 283 283 283 285 287
265 266 266 265 264 266 267 267 268 270 269 269 270 271 272 273 274 275 277 276 275 275 275 276 278 280 282 282 283 283 283 284 285 286 285 284 283 282 283 282 282 283 285
267 267 266 266 266 268 269 269 269 268 269 269 270 271 271 272 274 275 276 276 275 274 277 277 278 280 281 281 280 280 282 282 282 282 282 282 283 283 282 282 281 280 282
267 267 267 266 266 266 267 268 268 268 269 269 269 270 270 271 272 273 272 275 276 276 277 278 280 281 281 280 280 280 281 281 281 281 281 282 282 284 283 282 282 281 280
268 266 267 265 262 264 266 267 267 268 268 269 270 270 271 270 270 270 271 273 275 275 276 277 279 282 282 279 279 280 281 280 280 281 281 282 284 284 284 283 282 281 280
267 266 267 265 263 263 263 265 267 267 268 268 269 270 271 270 270 269 271 272 273 274 276 277 279 280 280 280 280 281 281 282 282 283 283 283 284 285 283 283 281 280 280
270 268 268 269 264 263 263 263 264 266 267 268 269 271 272 271 269 269 271 272 272 272 274 275 277 278 278 278 279 280 281 284 283 283 282 282 283 284 283 282 281 280 280
269 268 268 268 266 265 264 265 265 265 266 267 269 270 271 271 270 270 271 272 273 273 273 273 274 276 277 278 279 280 282 283 283 282 282 281 281 282 283 283 282 281 279
266 267 268 268 266 266 265 266 266 265 266 267 268 268 269 269 269 270 271 273 273 273 273 274 274 275 276 276 278 279 281 282 283 283 282 282 282 282 283 285 284 282 280
267 267 267 267 266 265 265 266 266 266 267 268 268 268 268 268 269 268 269 271 271 273 274 274 274 274 274 276 277 278 281 282 282 283 283 283 282 283 285 286 285 284 282
265 266 266 265 265 265 265 265 265 266 267 268 268 268 269 270 270 270 270 272 272 272 273 274 274 275 275 276 277 278 279 281 282 283 283 282 282 284 285 285 284 282 281
265 265 265 265 265 265 265 266 266 267 268 268 268 268 269 270 271 271 270 271 272 273 275 275 276 276 276 276 277 278 280 281 282 282 282 282 283 283 283 283 284 284 284